Flag for U.S.A. Weather past 2 weeks in Portland, Maine, U.S.A.

Now
49 °F

Clear.


Feels Like: 48 °F
Forecast: 46 / 53 °F
Wind: 3 mph from Southwest

Location: Portland - Portland International Jetport

Current Time: Apr 18, 2015 at 1:51:46 AM

Latest Report: Apr 18, 2015 at 12:51 AM


Visibility: 10 mi

Pressure: 29.87 "Hg

Humidity: 77%

Dew point: 42 °F

Location of PortlandLocation

Historic Weather in Portland — Graph

°F

Portland temperature yesterday

Maximum temperature yesterday: 66 °F (at 3:51 PM)
Minimum temperature yesterday: 46 °F (at 1:51 AM)
Average temperature yesterday: 55 °F

Past Weeks' High & Low Weather Summary

 TemperatureHumidityPressure
High69 °F (Apr 14, 1:51 PM)100% (Apr 9, 4:51 AM)30.56 "Hg (Apr 9, 4:51 AM)
Low25 °F (Apr 5, 4:51 AM)15% (Apr 15, 2:51 PM)29.42 "Hg (Apr 4, 7:51 AM)
Average44 °F61%30.10 "Hg
* Reported Apr 3 12:51 AM — Apr 18 12:51 AM, Portland, Weather by CustomWeather, © 2015

Note: Actual official high and low records may vary slightly from our data, if they occured in-between our weather recording intervals... More about our weather records

Advertising

Portland weather history for previous 24 hours

 ConditionsComfort  
Time TempWeatherWind HumidityBarometerVisibility
12:51 AM
Sat, Apr 18
49 °FClear.3 mph77%29.87 "Hg10 mi
11:51 PM
Fri, Apr 17
54 °FPassing clouds.6 mph67%29.86 "Hg10 mi
10:51 PM56 °FPassing clouds.6 mph62%29.85 "Hg10 mi
9:51 PM57 °FPassing clouds.6 mph62%29.85 "Hg10 mi
8:51 PM58 °FPassing clouds.8 mph60%29.85 "Hg10 mi
7:51 PM62 °FPassing clouds.7 mph52%29.82 "Hg10 mi
6:51 PM65 °FPassing clouds.10 mph47%29.80 "Hg10 mi
5:51 PM66 °FScattered clouds.14 mph45%29.80 "Hg10 mi
4:51 PM65 °FScattered clouds.13 mph51%29.80 "Hg10 mi
3:51 PM66 °FScattered clouds.15 mph50%29.81 "Hg10 mi
2:51 PM64 °FScattered clouds.17 mph54%29.82 "Hg10 mi
1:51 PM63 °FScattered clouds.12 mph60%29.85 "Hg10 mi
12:51 PM58 °FPartly sunny.12 mph78%29.88 "Hg10 mi
11:51 AM55 °FMostly cloudy.8 mph87%29.91 "Hg10 mi
10:51 AM50 °FLight rain. Fog.5 mph93%29.94 "Hg5 mi
9:51 AM49 °FLight rain. Overcast.9 mph86%29.96 "Hg8 mi
8:51 AM47 °FLight rain. Overcast.8 mph86%29.98 "Hg10 mi
7:51 AM47 °FLight rain. Overcast.8 mph77%30.01 "Hg10 mi
6:51 AM48 °FLight rain. Overcast.8 mph68%30.02 "Hg10 mi
5:51 AM49 °FPassing clouds.5 mph57%30.02 "Hg10 mi
4:51 AM49 °FPassing clouds.9 mph52%30.04 "Hg10 mi
3:51 AM48 °FClear.8 mph50%30.05 "Hg10 mi
2:51 AM46 °FClear.3 mph54%30.08 "Hg10 mi
1:51 AM46 °FClear.5 mph54%30.12 "Hg10 mi
Weather by CustomWeather, © 2015

See weather overviewHow to use our weather pages